Погода в Чантырье

Россия / Ханты-Мансийский автономный округ - Югра     60°19′18″N   64°12′16″E
темп.,
°C
ветер,
м/с
пор.,
м/с
влажн.,
%
обл.,
%
осадки,
мм/ч
давл.,
гПа
погр.,
м
3 марта, ср
ср323:00−10ю51293100 0.7 996724
02:00−9ююз41093100 0.4 995607
05:00−9ююз4995100 1.0 994632
08:00−10ююз4894100 0.7 992468
11:00−10ююз4892100 1.0 993466
14:00−7ююз5892100 0.3 992622
17:00−5зюз3893100 0.5 993524
20:00−7юз2396100 0.1 99348
4 марта, чт
чт423:00−8ююз369696 0.1 99495
02:00−7ююз369690 0.0 993126
05:00−10юз339488 0.0 99344
08:00−11юз339496 0.0 99359
11:00−7ююз359498 0.0 992256
14:00−5ююз249199 0.0 992358
17:00−5юз229299 0.0 99267
20:00−9юз2392100 0.0 99221
5 марта, пт
пт523:00−9юз2395100 0.0 99260
02:00−12юз339457 0.0 99246
05:00−14юз239438 0.0 99323
08:00−13ююз239598 0.0 99461
11:00−9ююз239398 0.1 995246
14:00−6ююз239099 0.1 996446
17:00−6ююз2396100 0.3 997211
20:00−8ю129798 0.3 99821
6 марта, сб
сб623:00−9сз009794 0.4 99821
02:00−9ссв129787 0.1 99821
05:00−11с229793 0.3 99925
08:00−13ссз239796 0.0 99958
11:00−10ссз249498 0.1 999251
14:00−9сз3594100 0.3 1000388
17:00−8сз3694100 0.6 1002472
20:00−12зсз339595 0.1 100357
7 марта, вс
вс723:00−16з229555 0.1 100520
02:00−15зюз229792 0.1 100531
05:00−18юз239892 0.1 100631
08:00−19юз239899 0.1 100561
11:00−16зюз249182 0.1 1005251
14:00−12зюз24844 0.0 1005469
17:00−12з239349 0.1 1005138
20:00−18зюз229545 0.0 100620